Regional Weather Roundup
Issued by NWS

Home | Current Version | Previous Version | Text Only | Print | Product List | Glossary Off
Versions: 1 2 3 4 5 6 7 8 9 10 11 12 13 14 15 16 17 18 19 20 21 22 23 24 25 26 27 28 29 30 31 32 33 34 35 36 37 38 39 40 41 42 43 44 45 46 47 48 49 50

000
ASUS43 KFSD 250410
RWRSD

WEATHER ROUNDUP FOR SOUTH DAKOTA
NATIONAL WEATHER SERVICE SIOUX FALLS SD
1000 PM CST WED DEC 24 2014

NOTE: "FAIR" INDICATES FEW OR NO CLOUDS BELOW 12,000 FEET WITH NO
SIGNIFICANT WEATHER AND/OR OBSTRUCTIONS TO VISIBILITY.


SDZ001>005-009-010-012>017-250500-
NORTHWEST AND NORTH CENTRAL SOUTH DAKOTA

CITY           SKY/WX    TMP DP  RH WIND       PRES   REMARKS
BUFFALO          N/A     34  31  88 N13       29.39R WCI  25
FAITH            N/A     32  24  72 N10       29.45R WCI  24
MOBRIDGE       CLOUDY    28  24  85 SE7       29.44F WCI  21
$$

SDZ012>016-024>037-041>051-057-063-072>074-250500-
SOUTHWEST AND SOUTH CENTRAL SOUTH DAKOTA

CITY           SKY/WX    TMP DP  RH WIND       PRES   REMARKS
RAPID CTY ARPT CLOUDY    38  28  67 NW10      29.39F
PIERRE         CLOUDY    27  23  85 CALM      29.47S
CUSTER         CLOUDY    34  20  56 W6        29.43S WCI  29
ELLSWORTH AFB  CLOUDY    36  29  74 NW5       29.40F
PHILIP         CLOUDY    29  25  85 N3        29.43F
PINE RIDGE     CLOUDY    29  22  75 W5        29.44F WCI  24
SPEARFISH      FAIR      32  27  80 SE3       29.42S
WINNER         MOCLDY    35  24  64 SW8       29.46F WCI  29
$$

SDZ004>011-016>023-039-040-250500-
NORTHEAST SOUTH DAKOTA

CITY           SKY/WX    TMP DP  RH WIND       PRES   REMARKS
ABERDEEN       CLOUDY    28  25  88 S12       29.50F WCI  18
WATERTOWN      MOCLDY    25  23  92 S9        29.50F WCI  15
SISSETON         N/A     33  23  66 SW14G24   29.47F WCI  23
$$

SDZ017-020-022-023-036>040-048>070-250500-
SOUTHEAST SOUTH DAKOTA

CITY           SKY/WX    TMP DP  RH WIND       PRES   REMARKS
SIOUX FALLS    CLOUDY    26  24  92 S17       29.58F WCI  13
HURON          PTCLDY    25  23  92 S12       29.50F WCI  14
CHAMBERLAIN    MOCLDY    21  19  90 E3        29.48S
MITCHELL       MOCLDY    27  24  89 S13       29.53F WCI  16
YANKTON        PTCLDY    25  21  86 E7        29.58F WCI  17
$$

ABBREVIATIONS USED IN REMARKS
   TC - TEMPERATURE IN CELSIUS
  WCI - WIND CHILL INDEX
   HX - HEAT INDEX
  VSB - VISIBILITY




USA.gov is the U.S. government's official web portal to all federal, state and local government web resources and services.